#timestamp,LO_Frequency,Hit,StdDev 
1609729215.5,286046995.5,N
1609729235.4,286046995.8,N
1609729255.2,286046997.5,N
1609729275.0,286046997.5,N
1609729275.9,286046997.5,N
1609729295.8,286046995.0,N
1609729315.6,286046997.5,N
1609729335.5,286046997.3,N
1609729355.3,286046996.6,N
1609729375.1,286046997.2,N
1609729395.9,286046997.9,N
1609729415.7,286046997.4,N
1609729435.6,286046995.5,N
1609729455.4,286046996.3,N
1609729475.2,286046995.4,N
1609729495.1,286046997.9,N
1609729496.0,286046997.9,N
1609729515.8,286046997.1,N
1609729535.6,286046997.5,N
1609729555.5,286046997.7,N
1609729575.3,286046997.9,N
1609729595.2,286046997.8,N
1609729615.9,286046998.0,N
1609729635.7,286046997.7,N
1609729655.6,286046997.8,N
1609729675.4,286046997.1,Y
1609729695.3,286046998.5,P
1609729715.1,286046998.2,N
1609729716.0,286046998.2,N
1609729735.8,286046998.5,N
1609729755.7,286047000.5,N
1609729775.5,286046998.8,N
1609729795.3,286046998.9,N
1609729815.2,286046998.8,N
1609729835.0,286047000.7,N
1609729835.9,286047000.7,N
1609729855.8,286047000.4,N
1609729875.6,286046999.8,N
1609729895.4,286047001.2,N
1609729915.3,286047000.0,N
1609729935.1,286046999.9,N
1609729955.9,286047000.6,N
1609729975.7,286047000.1,N
1609729995.5,286047001.1,N
1609730015.4,286047001.0,N
1609730035.2,286046999.9,N
1609730055.0,286046998.6,N
1609730056.0,286046998.6,N
1609730075.8,286046998.1,N
1609730095.6,286046998.5,N
1609730115.5,286047001.1,N
1609730135.3,286047001.0,N
1609730155.1,286046999.9,N
1609730175.9,286047001.2,N
1609730195.7,286046998.4,N
1609730215.6,286047000.7,N
1609730235.4,286047001.2,N
1609730255.2,286047001.1,N
1609730275.1,286046998.2,N
1609730276.0,286046998.2,N
1609730295.8,286047000.7,N
1609730315.7,286047000.6,N
1609730335.5,286047000.4,N
1609730355.3,286047000.3,N
1609730375.2,286046999.7,N
1609730395.0,286046999.7,N
1609730395.9,286046999.7,N
1609730415.8,286047002.8,N
1609730435.6,286047000.4,N
1609730455.4,286047001.0,N
1609730475.3,286047000.1,N
1609730495.1,286047000.7,N
1609730515.8,286046999.3,N
1609730535.7,286046998.3,N
1609730555.5,286046998.8,N
1609730575.4,286046999.2,N
1609730595.2,286046999.6,N
1609730615.0,286046999.6,N
1609730615.9,286046999.6,N
1609730635.8,286046996.5,Y
1609730655.6,286047000.7,P
1609730675.5,286046998.9,P
1609730695.3,286046999.4,N
1609730715.1,286046996.9,Y
1609730735.9,286046997.9,P
1609730755.7,286046997.6,N
1609730775.6,286046997.9,N
1609730795.4,286046997.4,Y
1609730815.2,286047000.8,P
1609730835.1,286047000.6,N
1609730836.0,286047000.6,N
1609730855.8,286047002.3,N
1609730875.7,286047000.9,N
1609730895.5,286047000.7,N
1609730915.3,286047000.6,N
1609730935.2,286047000.3,N
1609730955.0,286047000.5,N
1609730955.9,286047000.5,N
1609730975.8,286047001.2,N
1609730995.6,286046999.9,N
1609731015.4,286047002.3,N
1609731035.3,286047000.5,N
1609731055.1,286046998.6,N
1609731075.8,286047001.0,N
1609731095.7,286046998.1,N
1609731115.5,286047000.8,N
1609731135.4,286047000.8,N
1609731155.2,286047000.9,N
1609731175.0,286047000.6,N
1609731175.9,286047000.6,N
1609731195.8,286046998.5,N
1609731215.6,286046998.8,N
1609731235.4,286046997.3,N
1609731255.3,286046998.2,N
1609731275.1,286047000.3,N
1609731295.9,286047002.2,N
1609731315.7,286047004.2,Y
1609731335.5,286047003.9,P
1609731355.4,286047003.7,N
1609731375.2,286047004.1,N
1609731395.1,286047004.4,N
1609731396.0,286047004.4,N
1609731415.8,286047002.1,N
1609731435.6,286047004.4,Y
1609731455.5,286046998.4,P
1609731475.3,286046999.0,N
1609731495.2,286046998.2,N
1609731515.9,286046996.6,N
1609731535.7,286046997.5,N
1609731555.6,286046995.3,N
1609731575.4,286046994.9,N
1609731595.3,286046996.3,N
1609731615.1,286046996.4,N
1609731616.0,286046996.4,N
1609731635.8,286046995.5,N
1609731655.7,286046997.3,N
1609731675.5,286046997.1,N
1609731695.3,286046997.3,N
1609731715.2,286046997.3,N
1609731735.0,286046996.8,N
1609731735.9,286046996.8,N
1609731755.8,286046999.6,N
1609731775.6,286046998.4,N
1609731795.4,286046999.0,N
1609731815.3,286046999.3,N
1609731835.1,286046996.9,N
1609731855.9,286046998.6,N
1609731875.7,286046999.3,N
1609731895.5,286046997.4,N
1609731915.4,286046996.5,N
1609731935.2,286046997.4,N
1609731955.0,286046996.5,N
1609731956.0,286046996.5,N
1609731975.8,286046998.9,N
1609731995.6,286046999.1,N
1609732015.5,286046999.6,N
1609732035.3,286046999.3,N
1609732055.1,286046999.3,N
1609732075.9,286047000.8,N
1609732095.7,286046998.4,N
1609732115.6,286047001.2,N
1609732135.4,286046998.6,N
1609732155.2,286046998.4,N
1609732175.1,286046998.6,N
1609732176.0,286046998.6,N
1609732195.8,286046998.5,N
1609732215.7,286046998.5,N
1609732235.5,286046998.5,N
1609732255.3,286047001.0,N
1609732275.2,286046998.1,N
1609732295.0,286046999.5,N
1609732295.9,286046999.5,N
1609732315.7,286046996.5,N
1609732335.6,286046999.5,N
1609732355.4,286046998.8,N
1609732375.3,286046998.4,N
1609732395.1,286046999.0,N
1609732415.8,286046998.9,N
1609732435.7,286046998.4,N
1609732455.5,286047001.1,N
1609732475.4,286047000.5,N
1609732495.2,286047000.9,N
1609732515.0,286047001.2,N
1609732515.9,286047001.2,N
1609732535.8,286046998.4,N
1609732555.6,286046998.3,N
1609732575.5,286046999.4,N
1609732595.3,286046998.4,N
1609732615.1,286046996.8,N
1609732635.9,286046999.5,N
1609732655.7,286046998.4,N
1609732675.5,286046998.9,N
1609732695.4,286046999.1,N
1609732715.2,286046997.0,N
1609732735.1,286046997.4,N
1609732736.0,286046997.4,N
1609732755.8,286046997.5,N
1609732775.6,286046997.8,N
1609732795.5,286046997.5,N
